• en France
  • Liste des pays
  • À 7 jours
  • Température de l'eau
  • Carte satellitaire
  • Carte météo
  • Widgets météo
  • user-avatar
    Se connecter

    Météo par heure à Manizales

    Ce jour, 25 Février, Dimanche

    Heure Température Précipitation Vent Pression Humidité
    00:00 +13°C° 0,1 mm 1 m/s 602 mmHg 79%
    01:00 +12°C° 0,1 mm 1 m/s 602 mmHg 79%
    02:00 +12°C° 0,1 mm 1 m/s 602 mmHg 80%
    03:00 +12°C° 0,1 mm 1 m/s 602 mmHg 81%
    04:00 +12°C° 0,1 mm 1 m/s 602 mmHg 81%
    05:00 +12°C° 0,1 mm 1 m/s 602 mmHg 80%
    06:00 +12°C° 0,1 mm 1 m/s 603 mmHg 78%
    07:00 +12°C° 0,1 mm 0 m/s 603 mmHg 76%
    08:00 +16°C° 0 mm 1 m/s 605 mmHg 65%
    09:00 +19°C° 0 mm 1 m/s 606 mmHg 55%
    10:00 +22°C° 0 mm 1 m/s 607 mmHg 44%
    11:00 +23°C° 0,1 mm 1 m/s 607 mmHg 41%
    12:00 +24°C° 0,1 mm 1 m/s 607 mmHg 39%
    13:00 +25°C° 0,1 mm 1 m/s 607 mmHg 36%
    14:00 +25°C° 0,2 mm 1 m/s 606 mmHg 38%
    15:00 +24°C° 0,2 mm 1 m/s 605 mmHg 40%
    16:00 +23°C° 0,2 mm 2 m/s 605 mmHg 42%
    17:00 +21°C° 0,2 mm 1 m/s 604 mmHg 51%
    18:00 +18°C° 0,2 mm 1 m/s 603 mmHg 60%
    19:00 +14°C° 0,2 mm 1 m/s 602 mmHg 69%
    20:00 +14°C° 0,1 mm 1 m/s 603 mmHg 70%
    21:00 +13°C° 0,1 mm 1 m/s 603 mmHg 71%
    22:00 +13°C° 0,1 mm 1 m/s 603 mmHg 71%
    23:00 +12°C° 0,1 mm 1 m/s 603 mmHg 72%

    Demain, 26 Février, Lundi

    Heure Température Précipitation Vent Pression Humidité
    00:00 +12°C° 0,1 mm 1 m/s 603 mmHg 72%
    01:00 +12°C° 0,1 mm 1 m/s 603 mmHg 72%
    02:00 +12°C° 0 mm 1 m/s 603 mmHg 73%
    03:00 +11°C° 0 mm 1 m/s 603 mmHg 73%
    04:00 +11°C° 0 mm 1 m/s 602 mmHg 74%
    05:00 +12°C° 0 mm 1 m/s 603 mmHg 73%
    06:00 +12°C° 0 mm 1 m/s 603 mmHg 72%
    07:00 +12°C° 0 mm 1 m/s 604 mmHg 71%
    08:00 +15°C° 0 mm 1 m/s 605 mmHg 60%
    09:00 +20°C° 0 mm 1 m/s 607 mmHg 48%
    10:00 +23°C° 0 mm 1 m/s 608 mmHg 37%
    11:00 +24°C° 0,1 mm 1 m/s 608 mmHg 34%
    12:00 +25°C° 0,1 mm 1 m/s 608 mmHg 31%
    13:00 +27°C° 0,1 mm 1 m/s 607 mmHg 28%
    14:00 +26°C° 0 mm 1 m/s 606 mmHg 28%
    15:00 +25°C° 0 mm 1 m/s 605 mmHg 28%
    16:00 +25°C° 0 mm 1 m/s 604 mmHg 28%
    17:00 +22°C° 0,1 mm 1 m/s 604 mmHg 36%
    18:00 +19°C° 0,1 mm 1 m/s 603 mmHg 44%
    19:00 +15°C° 0,1 mm 1 m/s 602 mmHg 52%
    20:00 +14°C° 0,1 mm 1 m/s 603 mmHg 54%
    21:00 +13°C° 0,1 mm 1 m/s 603 mmHg 56%
    22:00 +13°C° 0,1 mm 1 m/s 603 mmHg 57%
    23:00 +12°C° 0,1 mm 1 m/s 603 mmHg 59%

    Après-demain, 27 Février, Mardi

    Heure Température Précipitation Vent Pression Humidité
    00:00 +12°C° 0,1 mm 1 m/s 603 mmHg 61%
    01:00 +12°C° 0,1 mm 1 m/s 603 mmHg 63%
    02:00 +12°C° 0 mm 1 m/s 602 mmHg 65%
    03:00 +12°C° 0 mm 1 m/s 602 mmHg 68%
    04:00 +11°C° 0 mm 1 m/s 602 mmHg 70%
    05:00 +12°C° 0 mm 1 m/s 602 mmHg 69%
    06:00 +12°C° 0 mm 1 m/s 603 mmHg 69%
    07:00 +13°C° 0 mm 1 m/s 603 mmHg 68%
    08:00 +16°C° 0 mm 1 m/s 605 mmHg 57%
    09:00 +20°C° 0 mm 1 m/s 606 mmHg 47%
    10:00 +23°C° 0 mm 1 m/s 608 mmHg 36%
    11:00 +24°C° 0 mm 1 m/s 607 mmHg 33%
    12:00 +26°C° 0 mm 1 m/s 607 mmHg 30%
    13:00 +27°C° 0 mm 1 m/s 607 mmHg 27%
    14:00 +26°C° 0 mm 1 m/s 606 mmHg 27%
    15:00 +26°C° 0 mm 1 m/s 605 mmHg 27%
    16:00 +25°C° 0 mm 1 m/s 604 mmHg 27%
    17:00 +22°C° 0,1 mm 1 m/s 603 mmHg 35%
    18:00 +19°C° 0,1 mm 1 m/s 602 mmHg 43%
    19:00 +15°C° 0,1 mm 1 m/s 602 mmHg 51%
    20:00 +14°C° 0,1 mm 1 m/s 602 mmHg 53%
    21:00 +13°C° 0,1 mm 1 m/s 602 mmHg 55%
    22:00 +13°C° 0,1 mm 1 m/s 603 mmHg 58%
    23:00 +12°C° 0,1 mm 1 m/s 602 mmHg 59%

    28 Février, Mercredi

    Heure Température Précipitation Vent Pression Humidité
    00:00 +12°C° 0,1 mm 1 m/s 602 mmHg 61%
    01:00 +12°C° 0,1 mm 1 m/s 602 mmHg 63%
    02:00 +12°C° 0 mm 1 m/s 602 mmHg 64%
    03:00 +12°C° 0 mm 1 m/s 601 mmHg 65%
    04:00 +12°C° 0 mm 1 m/s 601 mmHg 67%
    05:00 +12°C° 0 mm 1 m/s 601 mmHg 66%
    06:00 +12°C° 0 mm 1 m/s 602 mmHg 65%
    07:00 +12°C° 0 mm 1 m/s 602 mmHg 65%
    08:00 +16°C° 0 mm 1 m/s 604 mmHg 54%
    09:00 +20°C° 0 mm 1 m/s 606 mmHg 43%
    10:00 +24°C° 0 mm 1 m/s 607 mmHg 33%
    11:00 +25°C° 0 mm 1 m/s 607 mmHg 30%
    12:00 +26°C° 0 mm 1 m/s 607 mmHg 28%
    13:00 +27°C° 0 mm 1 m/s 606 mmHg 26%
    14:00 +26°C° 0 mm 1 m/s 605 mmHg 27%
    15:00 +26°C° 0 mm 1 m/s 605 mmHg 27%
    16:00 +25°C° 0 mm 1 m/s 604 mmHg 28%
    17:00 +22°C° 0,2 mm 1 m/s 603 mmHg 38%
    18:00 +19°C° 0,2 mm 1 m/s 602 mmHg 48%
    19:00 +15°C° 0,2 mm 1 m/s 602 mmHg 57%
    20:00 +14°C° 0,1 mm 1 m/s 602 mmHg 60%
    21:00 +14°C° 0,1 mm 1 m/s 602 mmHg 63%
    22:00 +13°C° 0,1 mm 1 m/s 603 mmHg 65%
    23:00 +13°C° 0,1 mm 1 m/s 602 mmHg 67%

    1 Mars, Jeudi

    Heure Température Précipitation Vent Pression Humidité
    00:00 +13°C° 0,1 mm 1 m/s 602 mmHg 69%
    01:00 +13°C° 0,1 mm 1 m/s 602 mmHg 71%
    02:00 +13°C° 0 mm 1 m/s 602 mmHg 72%
    03:00 +13°C° 0 mm 1 m/s 601 mmHg 73%
    04:00 +13°C° 0 mm 1 m/s 601 mmHg 75%
    05:00 +13°C° 0 mm 1 m/s 602 mmHg 74%
    06:00 +13°C° 0 mm 1 m/s 602 mmHg 73%
    07:00 +14°C° 0 mm 1 m/s 603 mmHg 73%
    08:00 +18°C° 0 mm 1 m/s 604 mmHg 63%
    09:00 +21°C° 0 mm 1 m/s 606 mmHg 53%
    10:00 +24°C° 0 mm 1 m/s 607 mmHg 43%
    11:00 +25°C° 0 mm 1 m/s 607 mmHg 40%
    12:00 +26°C° 0 mm 1 m/s 607 mmHg 38%
    13:00 +27°C° 0 mm 1 m/s 606 mmHg 36%
    14:00 +26°C° 0 mm 1 m/s 605 mmHg 37%
    15:00 +25°C° 0 mm 1 m/s 604 mmHg 39%
    16:00 +25°C° 0 mm 1 m/s 604 mmHg 40%
    17:00 +22°C° 0 mm 1 m/s 603 mmHg 48%
    18:00 +20°C° 0 mm 1 m/s 603 mmHg 56%
    19:00 +16°C° 0 mm 1 m/s 602 mmHg 64%
    20:00 +16°C° 0 mm 1 m/s 603 mmHg 67%
    21:00 +15°C° 0 mm 1 m/s 603 mmHg 69%
    22:00 +15°C° 0 mm 1 m/s 603 mmHg 72%
    23:00 +15°C° 0 mm 1 m/s 603 mmHg 74%

    2 Mars, Vendredi

    Heure Température Précipitation Vent Pression Humidité
    00:00 +14°C° 0 mm 1 m/s 603 mmHg 76%
    01:00 +14°C° 0 mm 1 m/s 602 mmHg 78%
    02:00 +14°C° 0 mm 1 m/s 602 mmHg 79%
    03:00 +14°C° 0 mm 1 m/s 602 mmHg 80%
    04:00 +14°C° 0 mm 1 m/s 602 mmHg 81%
    05:00 +14°C° 0 mm 1 m/s 602 mmHg 79%
    06:00 +14°C° 0 mm 1 m/s 603 mmHg 78%
    07:00 +14°C° 0 mm 0 m/s 603 mmHg 77%
    08:00 +16°C° 0,1 mm 0 m/s 604 mmHg 69%
    09:00 +18°C° 0,1 mm 0 m/s 605 mmHg 61%
    10:00 +21°C° 0,1 mm 0 m/s 606 mmHg 52%
    11:00 +23°C° 0,1 mm 1 m/s 606 mmHg 50%
    12:00 +24°C° 0,1 mm 1 m/s 606 mmHg 48%
    13:00 +25°C° 0,1 mm 1 m/s 605 mmHg 45%
    14:00 +25°C° 0,2 mm 1 m/s 605 mmHg 46%
    15:00 +25°C° 0,2 mm 1 m/s 604 mmHg 46%
    16:00 +24°C° 0,2 mm 1 m/s 603 mmHg 46%
    17:00 +22°C° 0,4 mm 1 m/s 603 mmHg 54%
    18:00 +20°C° 0,4 mm 1 m/s 602 mmHg 62%
    19:00 +18°C° 0,4 mm 1 m/s 602 mmHg 70%
    20:00 +16°C° 0,3 mm 1 m/s 602 mmHg 71%
    21:00 +16°C° 0,3 mm 1 m/s 603 mmHg 73%
    22:00 +15°C° 0,3 mm 1 m/s 603 mmHg 74%
    23:00 +15°C° 0,1 mm 1 m/s 603 mmHg 74%
    Voir plus